Time,TemperatureF,DewpointF,PressureIn,WindDirection,WindDirectionDegrees,WindSpeedMPH,WindSpeedGustMPH,Humidity,HourlyPrecipIn,Conditions,Clouds,dailyrainin,SolarRadiationWatts/m^2,SoftwareType,DateUTC
2013-05-24 00:12:00,47.0,34.0,-100.00,SE,127,10.0,14.0,60,-99.99,,,0.00,0.000000,,2013-05-24 06:12:00,
2013-05-24 01:11:00,46.0,35.0,-100.00,SSW,207,3.0,7.0,64,-99.99,,,0.00,0.000000,,2013-05-24 07:11:00,
2013-05-24 02:11:00,43.0,37.0,-100.00,SW,223,6.0,9.0,76,-99.99,,,0.00,0.000000,,2013-05-24 08:11:00,
2013-05-24 03:11:00,41.0,34.0,-100.00,South,175,6.0,9.0,73,-99.99,,,-99.99,0.000000,,2013-05-24 09:11:00,
2013-05-24 04:12:00,41.0,28.0,-100.00,SSW,194,5.0,8.0,59,-99.99,,,0.00,0.000000,,2013-05-24 10:12:00,
2013-05-24 05:12:00,39.0,26.0,-100.00,SSW,205,6.0,9.0,58,-99.99,,,0.00,0.000000,,2013-05-24 11:12:00,
2013-05-24 06:11:00,37.0,25.0,-100.00,SSE,156,5.0,7.0,62,-99.99,,,0.00,0.000000,,2013-05-24 12:11:00,
2013-05-24 07:11:00,33.0,26.0,-100.00,ESE,112,4.0,6.0,75,-99.99,,,-99.99,14.300000,,2013-05-24 13:11:00,
2013-05-24 08:11:00,39.0,29.0,-100.00,ESE,118,4.0,7.0,65,-99.99,,,0.00,195.600006,,2013-05-24 14:11:00,
2013-05-24 09:11:00,48.0,30.0,-100.00,SE,129,1.0,3.0,49,-99.99,,,0.00,155.270004,,2013-05-24 15:11:00,
2013-05-24 10:12:00,54.0,28.0,-100.00,SW,227,5.0,12.0,37,-99.99,,,0.00,560.299988,,2013-05-24 16:12:00,
2013-05-24 11:12:00,57.0,24.0,-100.00,SSE,167,6.0,12.0,27,-99.99,,,-99.99,783.210022,,2013-05-24 17:12:00,
2013-05-24 13:11:00,61.0,23.0,-100.00,SSW,205,6.0,14.0,23,-99.99,,,0.00,1022.739990,,2013-05-24 19:11:00,
2013-05-24 14:11:00,63.0,24.0,-100.00,WSW,251,6.0,17.0,22,-99.99,,,0.00,869.330017,,2013-05-24 20:11:00,
2013-05-24 15:11:00,64.0,27.0,-100.00,SW,228,7.0,16.0,24,-99.99,,,0.00,976.250000,,2013-05-24 21:11:00,
2013-05-24 15:32:00,66.0,31.0,-100.00,SW,222,10.0,20.0,26,-99.99,,,0.00,1013.440002,,2013-05-24 21:32:00,
2013-05-24 16:02:00,66.0,31.0,-100.00,SW,222,10.0,20.0,26,-99.99,,,0.00,1013.440002,,2013-05-24 22:02:00,
2013-05-24 16:12:00,66.0,31.0,-100.00,SW,222,10.0,20.0,26,-99.99,,,0.00,1013.440002,,2013-05-24 22:12:00,
2013-05-24 17:11:00,66.0,29.0,-100.00,SW,225,11.0,19.0,24,-99.99,,,0.00,800.760010,,2013-05-24 23:11:00,
2013-05-24 18:11:00,67.0,29.0,-100.00,SSW,211,10.0,18.0,23,-99.99,,,0.00,712.780029,,2013-05-25 00:11:00,
2013-05-24 19:11:00,66.0,28.0,-100.00,SSW,208,10.0,16.0,23,-99.99,,,0.00,501.720001,,2013-05-25 01:11:00,
2013-05-24 20:11:00,63.0,34.0,-100.00,SW,226,4.0,6.0,33,-99.99,,,0.00,243.600006,,2013-05-25 02:11:00,
2013-05-24 21:11:00,60.0,26.0,-100.00,South,175,7.0,11.0,26,-99.99,,,0.00,69.150002,,2013-05-25 03:11:00,
2013-05-24 22:12:00,54.0,30.0,-100.00,SE,134,2.0,4.0,40,-99.99,,,0.00,1.050000,,2013-05-25 04:12:00,
2013-05-24 23:12:00,51.0,27.0,-100.00,East,89,6.0,8.0,39,-99.99,,,0.00,0.120000,,2013-05-25 05:12:00,